Theta_e
343 338 340 340 337 335 335 336 337 337 336 336 336 335 335 334 333 332 329 328 329 329
341 339 338 341 340 336 338 335 337 336 336 336 335 334 333 332 333 333 331 328 330 329
334 339 338 336 336 336 337 332 336 336 336 334 335 335 332 333 332 333 331 329 328 328
337 338 333 335 332 336 337 331 333 334 334 334 333 334 333 332 331 327 326 327 327 327
338 337 336 335 333 335 334 334 331 331 333 333 332 331 331 329 331 327 324 325 327 326
336 336 336 334 334 333 335 332 330 329 332 332 331 331 332 331 331 330 327 325 324 325
337 334 335 334 336 334 333 330 329 331 333 332 331 331 331 331 331 328 328 327 324 325
336 335 334 333 334 336 334 331 332 332 332 333 332 328 328 332 330 328 328 328 327 326
332 332 332 333 333 335 334 333 332 333 331 332 327 309 310 322 331 330 328 324 326 324
332 332 332 333 332 334 334 332 332 332 333 329 326 306 303 308 332 331 327 327 328 328
329 329 330 330 330 333 334 333 333 333 333 330 321 304 303 305 332 331 330 331 329 328
330 330 331 332 332 333 332 330 331 333 333 329 324 305 303 315 332 330 330 331 330 329
331 332 332 335 335 335 335 335 334 331 331 319 326 304 302 315 331 328 328 328 321 310
333 332 335 337 336 337 334 334 332 331 331 330 327 318 305 306 331 328 327 325 322 316
Wind_Speed
6 3 2 2 3 3 2 4 3 2 1 3 3 3 4 1 2 3 3 5 4 4
5 5 5 4 3 3 3 4 4 2 1 1 2 2 2 2 3 1 4 4 5 3
5 4 5 3 6 4 3 5 5 3 2 3 1 3 3 1 2 3 3 4 5 3
5 5 5 3 5 5 1 5 4 5 4 3 4 3 2 3 4 3 4 2 3 5
6 6 4 4 5 5 4 3 4 4 5 4 5 3 4 1 3 4 2 5 4 5
7 6 4 5 4 5 6 5 4 4 5 7 5 3 3 2 2 3 5 5 3 2
8 5 6 5 3 4 5 4 1 6 6 7 6 3 2 2 2 4 6 4 4 2
9 6 7 5 3 1 4 5 7 6 5 6 6 5 6 3 2 6 7 6 5 5
9 8 8 6 5 3 3 5 6 5 4 7 7 8 9 7 5 9 8 8 8 9
9 11 9 8 7 5 4 4 4 6 6 8 5 8 9 10 5 8 8 8 8 9
10 9 9 8 7 6 4 4 6 5 6 8 4 6 7 9 6 7 8 7 9 10
11 9 7 6 8 6 5 4 3 5 5 9 5 4 7 6 6 6 7 8 10 11
14 11 6 7 6 5 5 5 5 6 6 10 6 4 7 5 6 8 7 8 8 13
13 11 9 6 6 5 6 6 6 7 6 8 7 3 5 6 7 8 8 8 6 5
Wind_Direction
136 164 175 92 92 126 186 111 216 102 207 237 227 223 171 240 206 246 253 274 251 221
141 120 109 97 95 137 135 167 122 155 239 335 242 138 123 210 216 249 36 26 24 33
151 101 128 119 121 141 153 130 132 136 149 73 82 71 96 117 132 83 48 52 24 33
128 143 106 139 112 120 200 93 149 177 141 135 97 80 53 121 88 58 64 42 35 80
138 119 160 147 127 149 187 194 213 160 128 123 79 38 80 63 147 147 72 58 44 30
118 128 150 154 195 186 168 188 220 154 127 85 84 54 64 62 71 162 133 127 112 36
124 153 153 155 186 263 176 148 123 125 109 115 103 97 155 153 85 87 120 129 118 139
136 158 140 140 155 20 76 56 123 107 106 125 123 62 19 43 123 111 98 106 91 73
160 155 139 150 147 152 128 120 101 120 113 80 84 53 37 14 100 110 104 100 97 99
144 144 155 164 156 153 141 115 128 121 110 93 88 44 23 11 104 109 110 115 117 106
155 148 141 157 158 157 153 150 129 140 128 106 80 32 17 351 105 114 131 121 119 118
123 132 129 122 116 129 133 123 143 131 134 108 102 21 13 347 109 102 106 104 107 117
137 144 154 123 129 145 142 133 141 135 86 104 107 35 17 20 113 103 97 87 82 90
127 138 126 125 138 126 115 117 112 117 112 112 114 80 23 20 116 121 119 110 102 98